Voltar ao catálogo

STARLINK-3528

AtivoComunicaçõesVLEO
NORAD 51714·PAYLOAD·🇺🇸 United States

Lançado Feb 21, 2022 de Cape Canaveral Space Force Station

Loading…

Próximas Passagens (próximas 24 horas)

TLE

AtualizadoSource: CelesTrak SupGP

Época: Sep 14, 2026, 21:32 UTC

1 51714C 22016A   26257.89770833 -.00012978  00000+0 -37125-3 0  2572
2 51714  53.1576 189.7469 0001254  89.9140 231.1073 15.35410114    17

Acompanhe STARLINK-3528 em tempo real com AllMySat

Download on the App Store